COSMOS 1285 DEB, 25839

Orbit data source: Space-Track

COSMOS 1285 DEB, 25839 is space debris in HEO originally from a launch on Tue, 04 Aug 1981 UTC launched from the Plesetsk Missile And Space Complex (PKMTR). Debris objects in space refer to the collection of defunct objects orbiting the Earth. Examples of debris include non-operational satellites, rocket bodies, and fragments generated from explosions, collisions, or faulty payload assembly.

Loading next visibility...
Identifier
25839, 1981-071H
Orbit
HEO
Country
Flag of CISCIS
Related business
Manufacturer
Unknown
Mission
Spacecraft
Bus & Motor
Unknown
Mass
Unknown
Launch date (UTC)
1981-08-04 (44 years ago)
Launch vehicle
Unknown
Launch site
Plesetsk Missile And Space Complex (PKMTR)
Object type
Payload
Rocket body
Debris
Shape & HBR
Unknown
Radar Cross Section
Medium (>0.1 m² and <1 m²)

Expand to show TLE details & history
Last TLE update: 1 month ago

TLE from 1 month ago
0 COSMOS 1285 DEB
1 25839U 81071H   25226.59526360 -.00000362  00000-0  00000-0 0  9999
2 25839  67.0704  86.7436 6512542   8.4776 144.7637  1.98333727206074
Epoch: 2025-08-14T14:17Z
TLE epoch observation values (Epoch: 2025-08-14T14:17:10.775Z)
Latitude
1.35241°
Longitude
88.62394°
Altitude
36,570.423 km
Speed
1.915 km/s
True Right ascension
17h 44m 42s
True Declination
1° 21' 04"
Sunlit
Object was in daylight at epoch
Visualization orbit readout
Latitude
Unknown
Longitude
Unknown
Altitude
Unknown
Speed
Unknown
Apparent Right ascension
Unknown
Apparent Declination
Unknown
Sunlit
N/A
Visualization observer readout
Local Sidereal Time
15:01:31
Azimuth
Unknown
Elevation
Unknown
Doppler factor
Unknown
Orbital elements
Apogee altitude
37,806.201 km
Perigee altitude
2,953.62 km
Semi-major axis
26,758.047 km
Eccentricity
0.65125
Inclination
67.0704°
RAAN
86.7436°
Arg. of periapsis
8.4776°
True anomaly
170.00916°
Mean anomaly
144.7637°
Eccentric anomaly
158.46224°
Mean motion
0.49586 °/min
Orbital period
726.01 mins
BSTAR
0
Loading maneuver chart data...
Computing Atmospheric mass density...
Loading historical data...
Loading historical data...
Loading historical data...
Loading historical data...
Loading historical data...
Loading historical data...
Loading historical data...

Documentation

Showing up to 5 results
|